HES004 LIPQ-LIEE

Flight info

Callsign HES004
Flight time 1h 18m
Altitude 39000
Route CHI1U CHI DCT APSUX DCT DEXUL DCT KOVAS
Aircraft B738/M-V/N

Departure

Time 2026-05-03 21:53
Airport Trieste Airport (LIPQ)

Arrival

Time 2026-05-03 23:11
Airport Cagliari Elmas Airport (LIEE)
Time Latitude Longitude Altitude Speed Heading
2026-05-03 21:39 45.82219 13.48485 46 ft 0 kts 169°
2026-05-03 21:45 45.82220 13.48484 46 ft 0 kts 169°
2026-05-03 21:46 45.82245 13.48477 46 ft 4 kts 167°
2026-05-03 21:46 45.82266 13.48468 43 ft 2 kts 141°
2026-05-03 21:46 45.82273 13.48455 46 ft 2 kts 98°
2026-05-03 21:46 45.82273 13.48439 44 ft 2 kts 82°
2026-05-03 21:47 45.82272 13.48423 45 ft 2 kts 79°
2026-05-03 21:47 45.82271 13.48421 46 ft 0 kts 79°
2026-05-03 21:49 45.82272 13.48423 45 ft 1 kts 79°
2026-05-03 21:50 45.82274 13.48445 46 ft 4 kts 79°
2026-05-03 21:50 45.82281 13.48496 44 ft 7 kts 79°
2026-05-03 21:50 45.82307 13.48563 45 ft 9 kts 29°
2026-05-03 21:50 45.82377 13.48573 46 ft 11 kts
2026-05-03 21:51 45.82465 13.48572 46 ft 14 kts 359°
2026-05-03 21:51 45.82568 13.48573 46 ft 16 kts
2026-05-03 21:51 45.82646 13.48574 46 ft 4 kts 360°
2026-05-03 21:51 45.82652 13.48574 45 ft 0 kts
2026-05-03 21:52 45.82751 13.48565 46 ft 27 kts 343°
2026-05-03 21:53 45.82779 13.48425 44 ft 25 kts 270°
2026-05-03 21:53 45.82778 13.47894 45 ft 97 kts 271°
2026-05-03 21:53 45.82791 13.46508 129 ft 173 kts 271°
2026-05-03 21:53 45.82804 13.44599 785 ft 208 kts 271°
2026-05-03 21:54 45.82841 13.42404 1457 ft 232 kts 272°
2026-05-03 21:54 45.82904 13.40079 2522 ft 232 kts 272°
2026-05-03 21:54 45.82989 13.37832 3660 ft 226 kts 274°
2026-05-03 21:54 45.83001 13.35492 4380 ft 246 kts 268°
2026-05-03 21:55 45.82948 13.32975 5258 ft 255 kts 268°
2026-05-03 21:55 45.82951 13.30395 6267 ft 263 kts 278°
2026-05-03 21:55 45.83736 13.28014 7199 ft 275 kts 311°
2026-05-03 21:55 45.85388 13.26603 8147 ft 284 kts 345°
2026-05-03 21:56 45.87347 13.26689 9109 ft 293 kts 18°
2026-05-03 21:56 45.89072 13.28241 9742 ft 298 kts 49°
2026-05-03 21:56 45.90010 13.30874 10141 ft 303 kts 82°
2026-05-03 21:56 45.89866 13.33947 10508 ft 325 kts 111°
2026-05-03 21:57 45.88596 13.36657 11083 ft 334 kts 140°
2026-05-03 21:57 45.86830 13.38839 11997 ft 337 kts 136°
2026-05-03 21:57 45.85350 13.41477 12912 ft 343 kts 124°
2026-05-03 21:57 45.84152 13.44462 13836 ft 347 kts 118°
2026-05-03 21:58 45.83083 13.47533 14632 ft 351 kts 117°
2026-05-03 21:58 45.81807 13.50529 15341 ft 355 kts 135°
2026-05-03 21:58 45.79775 13.52567 16141 ft 355 kts 159°
2026-05-03 21:58 45.77368 13.53319 16950 ft 356 kts 180°
2026-05-03 21:59 45.74954 13.52801 17705 ft 359 kts 200°
2026-05-03 21:59 45.72768 13.51063 18463 ft 362 kts 220°
2026-05-03 21:59 45.71134 13.48314 19126 ft 367 kts 240°
2026-05-03 21:59 45.70229 13.44896 19804 ft 372 kts 258°
2026-05-03 22:00 45.70075 13.41199 20499 ft 376 kts 271°
2026-05-03 22:00 45.70256 13.37433 20994 ft 380 kts 274°
2026-05-03 22:00 45.70471 13.33677 21079 ft 378 kts 273°
2026-05-03 22:00 45.70403 13.29958 21094 ft 379 kts 256°
2026-05-03 22:01 45.69441 13.26475 21099 ft 378 kts 238°
2026-05-03 22:01 45.67813 13.23535 21117 ft 377 kts 228°
2026-05-03 22:01 45.66037 13.20774 21093 ft 376 kts 227°
2026-05-03 22:01 45.64265 13.18025 21105 ft 376 kts 227°
2026-05-03 22:02 45.62497 13.15254 21102 ft 376 kts 228°
2026-05-03 22:02 45.60746 13.12477 21100 ft 376 kts 228°
2026-05-03 22:02 45.58996 13.09688 21108 ft 376 kts 229°
2026-05-03 22:02 45.57839 13.07843 21099 ft 376 kts 229°
2026-05-03 22:03 45.56093 13.05059 21106 ft 376 kts 228°
2026-05-03 22:03 45.54342 13.02269 21112 ft 377 kts 228°
2026-05-03 22:03 45.52576 12.99460 21277 ft 383 kts 228°
2026-05-03 22:03 45.50789 12.96620 21944 ft 384 kts 229°
2026-05-03 22:04 45.49004 12.93789 22721 ft 384 kts 229°
2026-05-03 22:04 45.47215 12.90953 23349 ft 387 kts 229°
2026-05-03 22:04 45.45400 12.88081 23869 ft 392 kts 229°
2026-05-03 22:04 45.43571 12.85187 24353 ft 395 kts 229°
2026-05-03 22:05 45.41748 12.82307 24856 ft 398 kts 229°
2026-05-03 22:05 45.39887 12.79372 25349 ft 400 kts 229°
2026-05-03 22:05 45.38062 12.76494 25818 ft 403 kts 229°
2026-05-03 22:05 45.36178 12.73527 26288 ft 406 kts 229°
2026-05-03 22:06 45.34277 12.70537 26739 ft 409 kts 229°
2026-05-03 22:06 45.32352 12.67512 27190 ft 412 kts 229°
2026-05-03 22:06 45.30425 12.64488 27638 ft 415 kts 229°
2026-05-03 22:06 45.28482 12.61442 28074 ft 417 kts 229°
2026-05-03 22:07 45.26550 12.58416 28477 ft 420 kts 230°
2026-05-03 22:07 45.24555 12.55295 28892 ft 423 kts 230°
2026-05-03 22:07 45.22594 12.52230 29294 ft 426 kts 230°
2026-05-03 22:07 45.20597 12.49113 29690 ft 429 kts 230°
2026-05-03 22:08 45.18584 12.45974 30059 ft 431 kts 230°
2026-05-03 22:08 45.16553 12.42811 30380 ft 434 kts 230°
2026-05-03 22:08 45.14513 12.39636 30708 ft 436 kts 230°
2026-05-03 22:08 45.12470 12.36460 31046 ft 437 kts 230°
2026-05-03 22:09 45.10436 12.33303 31362 ft 439 kts 230°
2026-05-03 22:09 45.08353 12.30135 31664 ft 442 kts 225°
2026-05-03 22:09 45.05845 12.27572 32039 ft 447 kts 209°
2026-05-03 22:10 45.00016 12.24589 33020 ft 445 kts 201°
2026-05-03 22:10 44.97061 12.23272 33357 ft 446 kts 200°
2026-05-03 22:10 44.94104 12.21963 33711 ft 446 kts 200°
2026-05-03 22:10 44.91152 12.20644 34132 ft 444 kts 201°
2026-05-03 22:11 44.88214 12.19314 34479 ft 443 kts 201°
2026-05-03 22:11 44.85281 12.17972 34761 ft 443 kts 201°
2026-05-03 22:11 44.82344 12.16618 35040 ft 444 kts 201°
2026-05-03 22:11 44.79411 12.15261 35360 ft 443 kts 201°
2026-05-03 22:12 44.76476 12.13902 35660 ft 443 kts 201°
2026-05-03 22:12 44.73542 12.12542 35929 ft 444 kts 201°
2026-05-03 22:12 44.70649 12.11204 36213 ft 444 kts 201°
2026-05-03 22:12 44.67711 12.09847 36502 ft 444 kts 201°
2026-05-03 22:13 44.64774 12.08491 36767 ft 444 kts 201°
2026-05-03 22:13 44.61833 12.07136 37030 ft 445 kts 201°
2026-05-03 22:13 44.58891 12.05782 37327 ft 444 kts 201°
2026-05-03 22:13 44.55962 12.04436 37604 ft 444 kts 201°
2026-05-03 22:14 44.53024 12.03087 37872 ft 444 kts 201°
2026-05-03 22:14 44.50084 12.01739 38117 ft 444 kts 201°
2026-05-03 22:14 44.47146 12.00393 38400 ft 443 kts 201°
2026-05-03 22:14 44.44252 11.99068 38682 ft 443 kts 201°
2026-05-03 22:15 44.41290 11.97714 38888 ft 443 kts 201°
2026-05-03 22:15 44.38352 11.96372 39047 ft 443 kts 201°
2026-05-03 22:15 44.35415 11.95031 39097 ft 444 kts 201°
2026-05-03 22:16 44.29576 11.92372 39106 ft 443 kts 201°
2026-05-03 22:16 44.23711 11.89706 39108 ft 443 kts 201°
2026-05-03 22:17 44.17843 11.87044 39106 ft 443 kts 201°
2026-05-03 22:17 44.11968 11.84385 39116 ft 443 kts 201°
2026-05-03 22:18 44.06107 11.81737 39120 ft 443 kts 201°
2026-05-03 22:18 44.00279 11.79109 39135 ft 443 kts 201°
2026-05-03 22:19 43.94415 11.76471 39143 ft 443 kts 201°
2026-05-03 22:19 43.88555 11.73841 39157 ft 443 kts 201°
2026-05-03 22:20 43.82692 11.71214 39165 ft 442 kts 201°
2026-05-03 22:20 43.76848 11.68602 39162 ft 441 kts 201°
2026-05-03 22:21 43.71013 11.65999 39159 ft 440 kts 201°
2026-05-03 22:21 43.65185 11.63404 39176 ft 440 kts 201°
2026-05-03 22:22 43.59358 11.60814 39168 ft 439 kts 201°
2026-05-03 22:22 43.53578 11.58251 39171 ft 439 kts 201°
2026-05-03 22:23 43.47751 11.55672 39179 ft 439 kts 201°
2026-05-03 22:23 43.41925 11.53099 39174 ft 440 kts 201°
2026-05-03 22:24 43.36091 11.50527 39181 ft 440 kts 201°
2026-05-03 22:24 43.30248 11.47957 39179 ft 441 kts 201°
2026-05-03 22:25 43.24426 11.45402 39179 ft 442 kts 201°
2026-05-03 22:25 43.18563 11.42833 39183 ft 442 kts 201°
2026-05-03 22:26 43.12698 11.40269 39188 ft 442 kts 201°
2026-05-03 22:26 43.06822 11.37705 39189 ft 443 kts 201°
2026-05-03 22:27 43.00943 11.35145 39177 ft 444 kts 201°
2026-05-03 22:27 42.95067 11.32591 39179 ft 443 kts 201°
2026-05-03 22:28 42.89181 11.30039 39174 ft 443 kts 201°
2026-05-03 22:28 42.83336 11.27509 39159 ft 443 kts 201°
2026-05-03 22:29 42.77449 11.24966 39163 ft 443 kts 201°
2026-05-03 22:29 42.71573 11.22432 39161 ft 443 kts 201°
2026-05-03 22:30 42.65694 11.19903 39159 ft 443 kts 201°
2026-05-03 22:30 42.59853 11.17395 39176 ft 442 kts 201°
2026-05-03 22:31 42.53981 11.14878 39175 ft 442 kts 201°
2026-05-03 22:31 42.48121 11.12372 39171 ft 441 kts 201°
2026-05-03 22:32 42.42266 11.09873 39183 ft 441 kts 201°
2026-05-03 22:32 42.36404 11.07375 39169 ft 441 kts 201°
2026-05-03 22:33 42.30592 11.04904 39165 ft 441 kts 201°
2026-05-03 22:33 42.24746 11.02423 39167 ft 440 kts 201°
2026-05-03 22:34 42.18902 10.99948 39162 ft 440 kts 201°
2026-05-03 22:34 42.13051 10.97474 39174 ft 440 kts 201°
2026-05-03 22:35 42.07199 10.95005 39166 ft 441 kts 201°
2026-05-03 22:35 42.01337 10.92536 39163 ft 441 kts 201°
2026-05-03 22:36 41.95474 10.90072 39160 ft 442 kts 201°
2026-05-03 22:36 41.89601 10.87608 39167 ft 442 kts 201°
2026-05-03 22:37 41.83752 10.85159 39161 ft 443 kts 201°
2026-05-03 22:37 41.77858 10.82696 39156 ft 444 kts 201°
2026-05-03 22:38 41.71959 10.80236 39157 ft 444 kts 201°
2026-05-03 22:38 41.66047 10.77775 39160 ft 445 kts 201°
2026-05-03 22:39 41.60122 10.75313 39156 ft 446 kts 201°
2026-05-03 22:39 41.54188 10.72852 39158 ft 446 kts 201°
2026-05-03 22:40 41.48281 10.70407 39158 ft 447 kts 201°
2026-05-03 22:40 41.42336 10.67951 39160 ft 447 kts 201°
2026-05-03 22:41 41.36379 10.65495 39156 ft 448 kts 201°
2026-05-03 22:41 41.30415 10.63040 39160 ft 448 kts 201°
2026-05-03 22:42 41.24488 10.60605 39154 ft 449 kts 201°
2026-05-03 22:42 41.18673 10.57715 39154 ft 442 kts 213°
2026-05-03 22:43 41.13747 10.52990 39162 ft 435 kts 225°
2026-05-03 22:43 41.11439 10.50385 38975 ft 439 kts 225°
2026-05-03 22:43 41.09107 10.47738 38454 ft 441 kts 225°
2026-05-03 22:43 41.06777 10.45109 37873 ft 438 kts 225°
2026-05-03 22:44 41.04454 10.42507 37301 ft 436 kts 225°
2026-05-03 22:44 41.02132 10.39919 36726 ft 435 kts 225°
2026-05-03 22:44 40.99818 10.37353 36290 ft 431 kts 225°
2026-05-03 22:44 40.97529 10.34825 35858 ft 427 kts 225°
2026-05-03 22:45 40.95281 10.32344 35431 ft 424 kts 225°
2026-05-03 22:45 40.93021 10.29853 35009 ft 421 kts 225°
2026-05-03 22:45 40.90781 10.27386 34580 ft 418 kts 225°
2026-05-03 22:45 40.88551 10.24931 34173 ft 415 kts 225°
2026-05-03 22:46 40.86340 10.22499 33708 ft 412 kts 225°
2026-05-03 22:46 40.84143 10.20084 33267 ft 409 kts 225°
2026-05-03 22:46 40.81962 10.17689 32843 ft 406 kts 225°
2026-05-03 22:46 40.79797 10.15314 32425 ft 403 kts 225°
2026-05-03 22:47 40.77677 10.12989 32027 ft 400 kts 225°
2026-05-03 22:47 40.75513 10.10620 31623 ft 397 kts 225°
2026-05-03 22:47 40.73396 10.08302 31225 ft 395 kts 225°
2026-05-03 22:47 40.71312 10.06024 30840 ft 393 kts 225°
2026-05-03 22:48 40.69214 10.03731 30449 ft 391 kts 224°
2026-05-03 22:48 40.67126 10.01451 30033 ft 389 kts 224°
2026-05-03 22:48 40.65044 9.99181 29585 ft 386 kts 224°
2026-05-03 22:48 40.62982 9.96934 29146 ft 383 kts 224°
2026-05-03 22:49 40.60955 9.94728 28753 ft 380 kts 224°
2026-05-03 22:49 40.58908 9.92501 28333 ft 377 kts 224°
2026-05-03 22:49 40.56890 9.90308 27944 ft 374 kts 224°
2026-05-03 22:49 40.54891 9.88137 27537 ft 371 kts 224°
2026-05-03 22:50 40.52906 9.85981 27144 ft 369 kts 223°
2026-05-03 22:50 40.50929 9.83837 26751 ft 366 kts 223°
2026-05-03 22:50 40.48970 9.81715 26371 ft 364 kts 223°
2026-05-03 22:50 40.47021 9.79601 25983 ft 362 kts 223°
2026-05-03 22:51 40.45736 9.78210 25722 ft 361 kts 223°
2026-05-03 22:51 40.43800 9.76116 25355 ft 360 kts 223°
2026-05-03 22:51 40.41245 9.73357 24840 ft 358 kts 223°
2026-05-03 22:51 40.39321 9.71280 24460 ft 357 kts 222°
2026-05-03 22:52 40.37402 9.69209 24060 ft 358 kts 222°
2026-05-03 22:52 40.35479 9.67137 23673 ft 357 kts 222°
2026-05-03 22:52 40.34184 9.65742 23359 ft 356 kts 222°
2026-05-03 22:52 40.32272 9.63685 22943 ft 354 kts 222°
2026-05-03 22:53 40.30393 9.61664 22558 ft 353 kts 222°
2026-05-03 22:53 40.28497 9.59628 22166 ft 350 kts 222°
2026-05-03 22:53 40.26621 9.57613 21794 ft 348 kts 221°
2026-05-03 22:53 40.24749 9.55605 21406 ft 347 kts 221°
2026-05-03 22:54 40.22875 9.53595 21012 ft 346 kts 221°
2026-05-03 22:54 40.21015 9.51603 20635 ft 344 kts 221°
2026-05-03 22:54 40.19192 9.49649 20273 ft 342 kts 221°
2026-05-03 22:54 40.17357 9.47687 19910 ft 340 kts 221°
2026-05-03 22:55 40.15530 9.45734 19530 ft 338 kts 221°
2026-05-03 22:55 40.13710 9.43784 19159 ft 337 kts 221°
2026-05-03 22:55 40.11896 9.41847 18803 ft 336 kts 221°
2026-05-03 22:55 40.10088 9.39921 18439 ft 335 kts 221°
2026-05-03 22:56 40.08278 9.37993 18005 ft 335 kts 221°
2026-05-03 22:56 40.06475 9.36071 17619 ft 333 kts 221°
2026-05-03 22:56 40.04682 9.34161 17224 ft 332 kts 221°
2026-05-03 22:56 40.02900 9.32261 16851 ft 329 kts 221°
2026-05-03 22:57 40.01150 9.30399 16500 ft 328 kts 221°
2026-05-03 22:57 39.99384 9.28522 16141 ft 327 kts 221°
2026-05-03 22:57 39.97622 9.26652 15772 ft 326 kts 220°
2026-05-03 22:57 39.95867 9.24787 15404 ft 324 kts 220°
2026-05-03 22:58 39.94121 9.22934 15064 ft 324 kts 220°
2026-05-03 22:58 39.92371 9.21088 14678 ft 323 kts 220°
2026-05-03 22:58 39.90629 9.19241 14327 ft 321 kts 220°
2026-05-03 22:58 39.88899 9.17409 13978 ft 320 kts 220°
2026-05-03 22:59 39.87174 9.15585 13580 ft 318 kts 220°
2026-05-03 22:59 39.85337 9.14063 13197 ft 317 kts 204°
2026-05-03 22:59 39.83246 9.13205 12880 ft 314 kts 195°
2026-05-03 22:59 39.81130 9.12512 12517 ft 313 kts 194°
2026-05-03 23:00 39.79026 9.11848 12181 ft 311 kts 194°
2026-05-03 23:00 39.76929 9.11177 11836 ft 310 kts 194°
2026-05-03 23:00 39.74831 9.10491 11490 ft 311 kts 194°
2026-05-03 23:00 39.72736 9.09794 11112 ft 310 kts 194°
2026-05-03 23:01 39.70647 9.09098 10779 ft 308 kts 194°
2026-05-03 23:01 39.68570 9.08402 10436 ft 308 kts 194°
2026-05-03 23:01 39.66525 9.07717 10291 ft 299 kts 194°
2026-05-03 23:01 39.64555 9.07088 10114 ft 292 kts 190°
2026-05-03 23:02 39.62480 9.06919 9312 ft 306 kts 178°
2026-05-03 23:02 39.60336 9.07037 8469 ft 311 kts 176°
2026-05-03 23:02 39.58156 9.07163 7655 ft 314 kts 177°
2026-05-03 23:02 39.55964 9.07253 6850 ft 316 kts 178°
2026-05-03 23:03 39.53815 9.07315 6565 ft 299 kts 178°
2026-05-03 23:03 39.51803 9.07298 6414 ft 280 kts 182°
2026-05-03 23:03 39.49920 9.07158 6287 ft 263 kts 184°
2026-05-03 23:03 39.48237 9.06479 6141 ft 249 kts 213°
2026-05-03 23:04 39.47067 9.04934 6030 ft 235 kts 237°
2026-05-03 23:04 39.46464 9.03049 5868 ft 229 kts 259°
2026-05-03 23:04 39.46262 9.01033 5710 ft 224 kts 262°
2026-05-03 23:04 39.46019 8.99047 5487 ft 223 kts 257°
2026-05-03 23:05 39.45654 8.97107 5318 ft 219 kts 252°
2026-05-03 23:05 39.45165 8.95299 5288 ft 206 kts 247°
2026-05-03 23:05 39.44592 8.93630 5091 ft 201 kts 243°
2026-05-03 23:05 39.43944 8.92023 4806 ft 201 kts 238°
2026-05-03 23:06 39.43062 8.90697 4616 ft 187 kts 212°
2026-05-03 23:06 39.41932 8.90058 4400 ft 173 kts 187°
2026-05-03 23:06 39.40781 8.90256 4040 ft 167 kts 150°
2026-05-03 23:06 39.39793 8.90968 3724 ft 165 kts 149°
2026-05-03 23:07 39.38807 8.91728 3372 ft 163 kts 145°
2026-05-03 23:07 39.37877 8.92550 3069 ft 158 kts 143°
2026-05-03 23:07 39.37017 8.93360 2804 ft 152 kts 142°
2026-05-03 23:07 39.36183 8.94170 2508 ft 148 kts 142°
2026-05-03 23:08 39.35360 8.94978 2148 ft 149 kts 142°
2026-05-03 23:08 39.34554 8.95748 1868 ft 140 kts 143°
2026-05-03 23:08 39.33769 8.96462 1617 ft 139 kts 144°
2026-05-03 23:08 39.32973 8.97125 1497 ft 130 kts 148°
2026-05-03 23:09 39.32191 8.97716 1651 ft 133 kts 147°
2026-05-03 23:09 39.31407 8.98368 1498 ft 137 kts 144°
2026-05-03 23:09 39.30644 8.99130 1220 ft 136 kts 141°
2026-05-03 23:09 39.29954 8.99913 933 ft 132 kts 137°
2026-05-03 23:10 39.29308 9.00704 774 ft 123 kts 139°
2026-05-03 23:10 39.28637 9.01471 685 ft 134 kts 141°
2026-05-03 23:10 39.27926 9.02261 588 ft 137 kts 140°
2026-05-03 23:10 39.27197 9.03078 390 ft 139 kts 140°
2026-05-03 23:11 39.26488 9.03889 192 ft 134 kts 141°
2026-05-03 23:11 39.25801 9.04678 34 ft 127 kts 140°
2026-05-03 23:11 39.25192 9.05373 14 ft 102 kts 137°
2026-05-03 23:11 39.24827 9.05797 16 ft 31 kts 138°
2026-05-03 23:12 39.24702 9.05957 14 ft 22 kts 126°
2026-05-03 23:12 39.24702 9.06099 14 ft 10 kts 67°
2026-05-03 23:12 39.24715 9.06130 14 ft 1 kts 52°
2026-05-03 23:12 39.24741 9.06146 14 ft 10 kts 10°
2026-05-03 23:13 39.24814 9.06089 14 ft 14 kts 318°
2026-05-03 23:13 39.24893 9.05993 14 ft 17 kts 316°
2026-05-03 23:13 39.24984 9.05885 14 ft 19 kts 318°
2026-05-03 23:13 39.25089 9.05768 14 ft 21 kts 319°
2026-05-03 23:14 39.25204 9.05634 14 ft 23 kts 317°
2026-05-03 23:14 39.25321 9.05498 14 ft 20 kts 319°
2026-05-03 23:14 39.25396 9.05467 14 ft 9 kts 39°
2026-05-03 23:14 39.25404 9.05544 14 ft 17 kts 106°
2026-05-03 23:15 39.25348 9.05678 16 ft 13 kts 95°
2026-05-03 23:15 39.25321 9.05787 16 ft 8 kts 112°
2026-05-03 23:15 39.25316 9.05800 16 ft 0 kts 112°
2026-05-03 23:15 39.25315 9.05806 15 ft 0 kts 112°